EW7554 Weather Reports


time (UTC)temp
C
wind
direction
speed
KPH
gust
KPH
rain 1hr
cm
rain 24hr
cm
rain mn
cm
humidity
%
barometer
mb
20260906190009 25 173 9.7 20.9 0.00 0.00 0.00 73 1018.2
20260906184506 25 163 14.5 19.3 0.00 0.00 0.00 73 1018.0
20260906183010 25 148 14.5 19.3 0.00 0.00 0.00 73 1017.8
20260906181500 24 194 9.7 19.3 0.00 0.00 0.00 73 1018.0
20260906180106 24 187 6.4 20.9 0.00 0.00 0.00 74 1017.9
20260906174557 24 135 6.4 20.9 0.00 0.00 0.00 75 1018.0
20260906173051 23 167 8.0 24.1 0.00 0.00 0.00 76 1018.1
20260906171551 23 171 6.4 19.3 0.00 0.00 0.00 78 1018.3
20260906170054 22 160 9.7 20.9 0.00 0.00 0.00 79 1018.6
20260906164543 22 137 8.0 16.1 0.00 0.00 0.00 79 1018.7
20260906163045 22 175 9.7 17.7 0.00 0.00 0.00 80 1018.8
20260906161542 22 168 4.8 12.9 0.00 0.00 0.00 81 1018.8
20260906160043 22 165 8.0 22.5 0.00 0.00 0.00 82 1018.7
20260906154540 22 151 6.4 16.1 0.00 0.00 0.00 82 1018.8
20260906153042 21 159 4.8 20.9 0.00 0.00 0.00 83 1018.7
20260906151540 21 154 11.3 19.3 0.00 0.00 0.00 83 1019.0
20260906150038 21 165 8.0 22.5 0.00 0.00 0.00 83 1018.9
20260906144538 21 94 4.8 16.1 0.00 0.00 0.00 83 1018.8
20260906143038 22 103 8.0 17.7 0.00 0.00 0.00 81 1018.7
20260906141538 22 175 6.4 14.5 0.00 0.00 0.00 80 1018.7
20260906140034 22 158 4.8 19.3 0.00 0.00 0.00 82 1018.8
20260906134532 22 133 4.8 9.7 0.00 0.00 0.00 83 1018.4
20260906133031 22 167 3.2 11.3 0.00 0.00 0.00 84 1018.4
20260906131536 21 135 1.6 8.0 0.00 0.00 0.00 85 1018.3
20260906130019 21 150 1.6 9.7 0.00 0.00 0.00 86 1018.1
20260906124517 21 165 1.6 9.7 0.00 0.00 0.00 87 1018.1
20260906123015 21 144 1.6 8.0 0.00 0.00 0.00 87 1017.9
20260906121512 20 126 0.0 4.8 0.00 0.00 0.00 88 1018.1
20260906120008 20 88 0.0 3.2 0.00 0.00 0.00 88 1018.0
20260906114505 20 111 0.0 4.8 0.00 0.00 0.00 88 1017.9
20260906113004 20 123 1.6 6.4 0.00 0.00 0.00 88 1017.7
20260906111611 20 138 1.6 6.4 0.00 0.00 0.00 88 1017.5
20260906110056 20 112 0.0 3.2 0.00 0.00 0.00 87 1017.5
20260906104554 21 116 0.0 3.2 0.00 0.00 0.00 87 1017.4
20260906103053 21 146 0.0 3.2 0.00 0.00 0.00 87 1017.4
20260906101552 21 117 0.0 4.8 0.00 0.00 0.00 86 1017.3
20260906100049 21 131 1.6 4.8 0.00 0.00 0.00 85 1017.4
20260906094548 21 130 0.0 4.8 0.00 0.00 0.00 85 1016.9
20260906093048 21 101 1.6 4.8 0.00 0.00 0.00 84 1016.7
20260906091544 21 136 1.6 6.4 0.00 0.00 0.00 84 1016.5
20260906090048 21 99 1.6 9.7 0.00 0.00 0.00 83 1016.6
20260906084549 22 128 3.2 6.4 0.00 0.00 0.00 83 1016.7
20260906083040 22 63 1.6 11.3 0.00 0.00 0.00 82 1016.6
20260906081537 22 184 4.8 12.9 0.00 0.00 0.00 82 1016.4
20260906080037 22 156 3.2 8.0 0.00 0.00 0.00 82 1016.4
20260906074535 22 125 0.0 8.0 0.00 0.00 0.00 82 1016.5
20260906073039 22 113 1.6 6.4 0.00 0.00 0.00 82 1016.6
20260906071532 22 102 1.6 6.4 0.00 0.00 0.00 81 1016.8
20260906070029 22 138 0.0 4.8 0.00 0.00 0.00 81 1016.9
20260906064529 22 115 0.0 3.2 0.00 0.00 0.00 81 1017.2
20260906063028 22 171 3.2 8.0 0.00 0.00 0.00 81 1017.0
20260906061528 22 128 3.2 6.4 0.00 0.00 0.00 82 1016.9
20260906060033 22 153 1.6 8.0 0.00 0.00 0.00 82 1017.1
20260906054526 23 84 1.6 6.4 0.00 0.00 0.00 81 1017.0
20260906053023 23 115 3.2 6.4 0.00 0.00 0.00 81 1016.9
20260906051520 23 120 0.0 4.8 0.00 0.00 0.00 81 1017.0
20260906050018 23 127 1.6 4.8 0.00 0.00 0.00 80 1017.1
20260906044518 23 107 0.0 4.8 0.00 0.00 0.00 79 1017.2
20260906043027 23 97 1.6 4.8 0.00 0.00 0.00 79 1017.2
20260906041518 23 56 0.0 8.0 0.00 0.00 0.00 79 1017.4
20260906040023 23 50 1.6 6.4 0.00 0.00 0.00 79 1017.3
20260906034529 23 78 1.6 4.8 0.00 0.00 0.00 79 1017.4
20260906033024 23 136 1.6 4.8 0.00 0.00 0.00 78 1017.4
20260906031518 23 141 0.0 3.2 0.00 0.00 0.00 78 1017.2
20260906030015 24 150 0.0 4.8 0.00 0.00 0.00 77 1017.3
20260906024514 24 150 0.0 4.8 0.00 0.00 0.00 77 1017.5
20260906023016 24 150 0.0 3.2 0.00 0.00 0.00 77 1017.4
20260906021514 24 150 1.6 4.8 0.00 0.00 0.00 77 1017.1
20260906020013 24 148 1.6 8.0 0.00 0.00 0.00 75 1016.6
20260906014525 25 145 4.8 12.9 0.00 0.00 0.00 74 1016.3
20260906013113 25 171 4.8 17.7 0.00 0.00 0.00 74 1015.7
20260906011521 25 205 8.0 16.1 0.00 0.00 0.00 73 1015.4
20260906010012 25 149 9.7 17.7 0.00 0.00 0.00 73 1015.3
20260906004517 26 167 8.0 16.1 0.00 0.00 0.00 71 1015.2
20260906003011 26 163 9.7 20.9 0.00 0.00 0.00 69 1015.0
20260906001510 27 165 8.0 12.9 0.00 0.00 0.00 68 1014.8
20260906000010 27 161 8.0 14.5 0.00 0.00 0.00 65 1014.7
20260905234508 28 182 3.2 12.9 0.00 0.00 0.00 63 1014.7
20260905233007 28 184 8.0 19.3 0.00 0.00 0.00 62 1014.6
20260905231508 29 174 6.4 17.7 0.00 0.00 0.00 60 1014.4
20260905230007 30 129 1.6 16.1 0.00 0.00 0.00 58 1014.3
20260905224513 30 57 3.2 19.3 0.00 0.00 0.00 57 1014.0
20260905223005 30 41 6.4 16.1 0.00 0.00 0.00 58 1013.8
20260905221505 30 173 6.4 20.9 0.00 0.00 0.00 59 1014.0
20260905220002 30 61 4.8 14.5 0.00 0.00 0.00 59 1014.3
20260905214501 30 57 3.2 19.3 0.00 0.00 0.00 60 1014.5
20260905213104 29 84 6.4 20.9 0.00 0.00 0.00 62 1014.6
20260905211605 29 67 8.0 17.7 0.00 0.00 0.00 61 1014.7
20260905210059 29 48 6.4 19.3 0.00 0.00 0.00 63 1014.4
20260905204602 28 61 4.8 20.9 0.00 0.00 0.00 62 1014.7
20260905203058 28 55 11.3 20.9 0.00 0.00 0.00 64 1014.8
20260905201552 28 80 4.8 14.5 0.00 0.00 0.00 66 1015.5
20260905200100 28 17 9.7 17.7 0.00 0.00 0.00 67 1015.8
20260905194549 27 57 4.8 16.1 0.00 0.00 0.00 69 1015.9
20260905193103 27 27 4.8 11.3 0.00 0.00 0.00 68 1016.2
20260905191553 27 360 3.2 8.0 0.00 0.00 0.00 69 1016.4